Location: Stara Lesna
(49.1528°N, 20.2911°E)
Time: 09:54:56
(UTC+02:00)

Cosmos 1441 Rocket - Pass Details

Date: 13 July 2020
Orbit: 495 x 541 km, 81.1° (Epoch: 06 August)

Event Time Altitude Azimuth Distance (km) Brightness Sun altitude
Exits shadow 00:49:54 43° 139° (SE) 769 3.7 -19.0°
Maximum altitude 00:50:45 52° 97° (E) 677 3.7 -19.0°
Drops below altitude 10° 00:54:36 10° 21° (NNE) 1,799 7.0 -19.0°
Sets 00:56:47 0° 17° (NNE) 2,688 8.3 -19.0°
